Location: Moscow
(55.7500°N, 37.5830°E)
Time: 10:36:02
(UTC+03:00)

Vanguard 3 - Pass Details

Date: 05 December 2021
Orbit: 508 x 3260 km, 33.3° (Epoch: 19 January)

Event Time Altitude Azimuth Distance (km) Brightness Sun altitude
Rises 06:09:40 0° 246° (WSW) 7,215 - -19.8°
Exits shadow 06:12:25 - 243° (WSW) 6,717 11.4 -19.4°
Reaches altitude 10° 06:15:24 10° 238° (WSW) 6,183 11.2 -19.0°
Maximum altitude 06:30:42 31° 187° (S) 4,111 10.7 -16.9°
Drops below altitude 10° 06:42:22 10° 132° (SE) 4,703 12.1 -15.3°
Sets 06:46:00 0° 122° (ESE) 5,335 12.9 -14.9°
